Terug naar catalogus

NOAA 17 DEB

ActiefPO
NORAD 48724·DEBRIS·🇺🇸 United States

Gelanceerd Jun 24, 2002 vanaf Vandenberg Space Force Base

Loading…

Volgende Passages (komende 24 uur)

TLE

VersSource: Space-Track

Epoch: Sep 14, 2026, 09:52 UTC

1 48724U 02032BH  26257.41164818  .00007308  00000-0  10149-2 0  9992
2 48724  98.7358 308.4097 0021655  20.8109 339.3976 14.78067249290983

Volg NOAA 17 DEB in realtime met AllMySat

Download on the App Store